[[{"header":{"parameterUnit":"m.s-1","parameterCategory":1,"la1":30.2992,"la2":30.254,"lo1":-89.0895,"lo2":-89.0443,"dy":0.0025,"dx":0.0025,"nx":19,"ny":19,"refTime":"2026-04-06T21:00:00:Z","depth":0,"parameterNumber":2,"parameterNumberName":"U-component_of_WINDS"},"data":[0,0,0,-7.6037,-7.6043,-7.6279,-7.6279,-7.6656,-7.666,0,0,0,0,0,0,0,0,0,0,0,-7.6012,-7.6016,-7.6037,-7.6044,-7.6278,-7.6279,-7.6655,-7.666,0,0,0,0,0,0,0,0,0,0,0,-7.601,-7.6015,-7.602,-7.6045,-7.6278,-7.6279,-7.6654,-7.645,0,0,0,0,0,0,0,0,0,0,-7.6209,-7.6229,-7.6014,-7.6021,-7.6047,-7.6278,-7.6279,-7.6439,-7.6463,-7.6581,0,-7.6697,0,-7.6685,-7.669,-7.6691,0,0,0,-7.6011,-7.621,-7.6232,-7.6021,-7.6049,-7.6278,-7.6163,-7.6451,-7.6479,-7.6613,-7.6702,-7.6713,-7.6691,-7.6693,-7.6695,-7.748,-7.7485,0,0,-7.5998,-7.608,-7.6214,-7.6252,-7.6219,-7.6156,-7.6171,-7.6467,-7.6569,-7.6703,-7.6721,-7.6697,-7.6696,-7.6699,-7.7475,-7.7481,0,0,0,-7.5983,-7.6072,-7.6085,-7.6239,-7.6275,-7.6164,-7.6181,-7.6556,-7.6553,-7.6725,-7.6702,-7.6698,-7.6704,-7.7469,-7.7477,-7.7811,0,0,0,-7.5974,-7.6063,-7.6081,-7.6134,-7.6271,-7.6418,-7.6265,-7.6533,-7.6563,-7.67,-7.6698,-7.6708,-7.7463,-7.7473,-7.7789,-7.7956,0,0,0,-7.5982,-7.6063,-7.6112,-7.6137,-7.6241,-7.6411,-7.6425,-7.6537,-7.6552,-7.6692,-7.6709,-7.7459,-7.7471,-7.777,-7.7924,-7.8185,0,0,0,-7.6015,-7.6409,-7.6119,-7.6549,-7.624,-7.6616,-7.6422,-7.6699,-7.6858,-7.67,-7.7464,-7.7476,-7.7764,-7.7904,-7.8165,-7.842,-7.8533,0,0,-7.6557,-7.6477,-7.6723,-7.647,-7.6918,-7.6573,-7.707,-7.7141,-7.7082,-7.7351,-7.7369,-7.7796,-7.7922,-7.8181,-7.914,-7.9231,0,0,0,-7.6922,-7.7101,-7.7201,-7.7355,-7.7417,-7.7483,-7.7469,-7.7495,-7.7718,-7.7236,-7.7958,-7.8031,-7.8179,-7.8297,-7.8375,-7.8497,-7.7534,-7.7533,-7.7531,-7.7808,-7.7707,-7.8107,-7.8035,-7.8187,-7.8166,-7.828,-7.8311,-7.8169,-7.8341,-7.8421,-7.9015,-7.9156,-7.9213,-7.9342,-7.8546,-7.8548,-7.8549,-7.855,-7.8592,-7.8828,-7.8624,-7.8939,-7.8831,-7.9095,-7.909,-7.898,-7.9211,-7.8947,-7.9073,-7.8794,-7.9316,-7.9423,-7.8574,-7.857,-7.8567,-7.8564,-7.8563,-7.9161,-7.9256,-7.9278,-7.9488,-7.9661,-7.9574,-7.9804,-7.9697,-7.96,-7.9724,-7.9796,-7.979,-7.9771,-7.9765,-7.9767,-7.977,-7.9771,-7.9773,-7.9774,-7.9743,-7.9756,-7.9962,-8.0058,-8.014,-8.0237,-8.0217,-8.0297,-8.0358,-8.0263,-8.0263,-8.0103,-7.9385,-7.9206,-7.9806,-7.98,-7.9796,-7.9793,-7.9791,-8.0577,-8.037,-8.0688,-8.0771,-8.0872,-8.1051,-8.091,-8.1081,-8.1132,-8.1249,-8.106,-8.0546,-8.0458,-8.0396,-8.0248,-8.108,-8.108,-8.108,-8.1081,-8.1057,-8.1,-8.1298,-8.1438,-8.1562,-8.1466,-8.183,-8.1818,-8.1775,-8.1799,-8.1663,-8.1457,-8.1398,-8.1345,-8.1262,-8.1122,-8.2159,-8.216,-8.216,-8.1563,-8.1512,-8.1842,-8.1792,-8.1863,-8.1927,-8.2264,-8.2434,-8.2341,-8.2202,-8.1816,-8.1771,-8.1437,-8.1334,-8.1188,-8.1062,-8.0803,0,0]},{"header":{"parameterUnit":"m.s-1","parameterCategory":1,"la1":30.2992,"la2":30.254,"lo1":-89.0895,"lo2":-89.0443,"dy":0.0025,"dx":0.0025,"nx":19,"ny":19,"refTime":"2026-04-06T21:00:00:Z","depth":0,"parameterNumber":3,"parameterNumberName":"V-component_of_WINDS"},"data":[0,0,0,-0.9928,-0.9929,-0.997,-0.997,-0.9998,-0.9998,0,0,0,0,0,0,0,0,0,0,0,-0.9903,-0.9902,-0.9928,-0.9929,-0.997,-0.997,-0.9998,-0.9998,0,0,0,0,0,0,0,0,0,0,0,-0.9903,-0.9902,-0.9902,-0.9929,-0.997,-0.997,-0.9998,-0.9975,0,0,0,0,0,0,0,0,0,0,-0.9939,-0.9903,-0.9903,-0.9902,-0.9929,-0.997,-0.997,-0.9975,-0.9977,-0.9969,0,-0.996,0,-0.998,-0.9998,-0.9998,0,0,0,-0.9938,-0.9902,-0.9925,-0.9902,-0.9929,-0.997,-0.9954,-0.9976,-0.9978,-0.9972,-0.9961,-0.9963,-0.998,-0.9998,-0.9998,-0.9925,-0.9924,0,0,-0.9936,-0.9903,-0.9923,-0.9926,-0.992,-0.9953,-0.9955,-0.9978,-0.9963,-0.9961,-0.9964,-0.998,-0.9998,-0.9998,-0.9926,-0.9925,0,0,0,-0.9923,-0.99,-0.9924,-0.9924,-0.9933,-0.9954,-0.9957,-0.9962,-0.9973,-0.9964,-0.9981,-0.9998,-0.9999,-0.9927,-0.9926,-0.9853,0,0,0,-0.9922,-0.9893,-0.9922,-0.9902,-0.9932,-0.9949,-0.994,-0.9971,-0.9975,-0.9981,-0.9998,-0.9999,-0.9928,-0.9926,-0.9857,-0.9823,0,0,0,-0.9904,-0.9891,-0.9893,-0.99,-0.9917,-0.9949,-0.9961,-0.9973,-0.9984,-0.9998,-0.9999,-0.9929,-0.9927,-0.986,-0.9829,-0.9792,0,0,0,-0.9876,-0.9828,-0.9891,-0.9845,-0.9916,-0.9905,-0.9962,-0.9955,-0.9958,-0.9998,-0.9928,-0.9926,-0.9862,-0.9833,-0.9796,-0.9754,-0.9734,0,0,-0.9797,-0.9818,-0.9793,-0.985,-0.9819,-0.9901,-0.9859,-0.9894,-0.9925,-0.9923,-0.9922,-0.9856,-0.983,-0.9793,-0.9638,-0.9621,0,0,0,-0.9757,-0.9738,-0.9737,-0.9739,-0.9765,-0.9783,-0.9828,-0.9841,-0.984,-0.9918,-0.9835,-0.982,-0.98,-0.9781,-0.9768,-0.9751,-0.9917,-0.9917,-0.9917,-0.9596,-0.964,-0.96,-0.9648,-0.9649,-0.9695,-0.9699,-0.9724,-0.9768,-0.9747,-0.9746,-0.9646,-0.9623,-0.9613,-0.9595,-0.9729,-0.9729,-0.9729,-0.9729,-0.9483,-0.9462,-0.9521,-0.9504,-0.9549,-0.9535,-0.9577,-0.9608,-0.96,-0.9651,-0.9636,-0.9686,-0.9594,-0.9581,-0.9724,-0.9724,-0.9725,-0.9726,-0.9726,-0.938,-0.9378,-0.9395,-0.9401,-0.94,-0.945,-0.9439,-0.9482,-0.9521,-0.9506,-0.9507,-0.9509,-0.9513,-0.9504,-0.9504,-0.9504,-0.9503,-0.9503,-0.9503,-0.9266,-0.9288,-0.9274,-0.9296,-0.9302,-0.9315,-0.936,-0.9367,-0.9384,-0.9415,-0.9416,-0.9459,-0.9578,-0.9605,-0.9497,-0.9498,-0.9499,-0.95,-0.95,-0.9131,-0.9168,-0.9147,-0.9152,-0.9181,-0.9176,-0.9231,-0.9239,-0.9251,-0.9243,-0.9291,-0.9373,-0.9396,-0.9408,-0.943,-0.9283,-0.9283,-0.9283,-0.9283,-0.9042,-0.9059,-0.9045,-0.9051,-0.9062,-0.9109,-0.908,-0.9114,-0.9154,-0.9163,-0.9192,-0.9226,-0.9236,-0.9254,-0.9268,-0.929,-0.9111,-0.911,-0.911,-0.896,-0.898,-0.8948,-0.8989,-0.9014,-0.9034,-0.9008,-0.901,-0.9064,-0.9104,-0.9171,-0.9178,-0.9235,-0.9252,-0.929,-0.9312,-0.9353,0,0]}]]